CAPE
0 0 0 0 0 0 0 0 0 0 0 0 0 0 0 0 0 0 0 0 0 0 0 0 0 0 0 0 0 0 0 0 0 0 0 0 0 0 0 0 0 0 0
0 0 0 0 0 0 0 0 0 0 0 0 0 0 0 0 0 0 0 0 0 0 0 0 0 0 0 0 0 0 0 0 0 0 0 0 0 0 0 0 0 0 0
0 0 0 0 0 0 0 0 0 0 0 0 0 0 0 0 0 0 0 0 0 0 0 0 0 0 0 0 0 0 0 0 0 0 0 0 0 0 0 0 0 1 5
0 0 0 0 0 0 0 0 0 0 0 0 0 0 0 0 0 0 0 0 0 0 0 0 0 0 0 0 0 0 0 2 2 5 0 0 5 1 4 3 1 3 2
0 0 0 0 0 0 0 0 0 0 0 0 0 0 0 0 0 0 0 0 0 0 0 0 0 0 0 0 1 2 5 9 3 0 1 1 10 5 5 4 14 8 5
0 0 0 0 0 0 0 0 0 0 0 0 0 0 0 0 0 0 0 0 0 1 0 1 2 5 3 9 10 21 35 9 5 11 16 17 16 8 6 2 12 3 0
0 0 0 0 0 0 0 0 0 0 0 0 0 0 0 0 0 0 0 0 3 1 1 1 1 0 0 0 1 6 5 4 10 14 11 2 7 6 5 9 6 8 4
0 0 0 0 0 0 0 0 0 0 0 0 0 0 0 0 0 0 0 0 0 0 0 0 0 0 0 0 1 1 1 3 6 4 9 6 8 8 12 12 4 5 13
0 0 0 0 0 0 0 0 0 0 0 0 0 0 0 0 0 0 0 0 0 0 0 0 0 0 0 13 3 8 10 18 24 23 21 35 30 24 24 11 4 1 0
0 0 0 0 0 0 0 0 0 0 0 0 0 0 0 0 0 0 0 0 0 0 1 2 2 6 7 12 16 14 10 4 8 7 9 14 22 10 18 17 10 7 4
0 0 0 0 0 0 0 0 0 0 0 0 0 0 0 0 0 0 0 2 3 4 1 2 1 13 12 13 15 16 12 14 12 7 3 14 5 4 3 11 10 9 14
0 0 0 0 0 0 0 0 0 0 0 0 0 0 0 0 0 0 2 4 5 4 4 4 2 10 16 17 16 20 21 10 7 2 4 3 1 3 5 2 4 1 7
0 0 0 0 0 0 0 0 0 0 0 0 0 0 0 0 0 0 3 5 3 10 11 7 7 19 19 21 15 12 10 4 1 0 0 0 0 2 1 3 4 5 2
0 0 0 0 0 0 0 0 0 0 0 0 0 0 0 0 0 1 5 7 10 10 12 6 0 0 0 2 0 1 1 1 1 1 1 2 4 5 7 8 8 4 4
0 0 0 0 0 0 0 0 0 0 0 0 0 0 0 0 1 10 13 12 19 18 6 3 1 1 1 1 1 2 5 4 4 5 5 3 3 3 3 7 7 3 6
0 0 0 0 0 0 0 0 0 0 0 0 0 1 1 1 6 6 14 13 5 4 1 0 1 1 2 3 3 0 2 4 6 4 3 3 5 6 5 6 9 8 6
0 0 0 0 0 0 0 0 0 0 0 0 0 0 0 4 7 10 5 3 3 2 1 0 0 0 0 0 0 0 2 1 2 4 2 3 2 6 5 8 9 7 5
0 0 0 0 0 0 0 0 0 0 0 0 0 1 0 4 8 1 1 1 0 0 0 1 3 3 3 1 1 1 2 6 6 5 3 3 4 5 5 8 6 6 6
0 0 0 0 0 0 0 0 0 0 0 0 0 0 0 6 1 1 0 0 1 1 1 2 2 1 1 1 1 1 0 1 1 0 0 1 2 1 3 6 8 5 6
0 0 0 0 0 0 0 0 0 0 0 0 0 0 1 3 0 0 0 2 1 1 2 1 0 1 1 1 1 1 0 0 0 0 0 0 2 5 5 5 5 5 5
0 0 0 0 0 0 0 0 0 0 0 0 0 0 4 1 0 1 0 6 3 0 1 1 1 2 2 2 2 1 1 0 0 0 0 0 0 2 4 3 4 4 5
0 0 0 0 0 0 0 0 0 0 0 0 0 0 0 0 1 2 5 3 1 1 1 2 2 2 1 1 1 1 1 1 1 0 0 0 0 0 0 0 1 0 4
0 0 0 0 0 0 0 0 0 0 0 0 0 0 0 0 0 0 2 2 1 1 2 2 2 1 1 2 3 2 1 0 1 1 1 1 0 0 0 0 0 2 1
0 0 0 0 0 0 0 0 0 0 0 0 0 0 0 0 1 3 3 1 1 1 2 2 1 1 1 2 2 2 3 3 2 0 0 1 1 2 1 2 2 1 2
0 0 0 0 0 0 0 0 0 0 0 0 1 0 0 0 0 3 2 1 1 1 2 2 2 2 2 3 4 5 1 1 1 1 3 0 0 1 2 3 2 3 2
0 0 0 0 0 0 0 0 0 0 0 0 1 0 1 2 2 2 3 1 1 1 1 3 2 3 3 3 4 3 2 3 3 2 3 2 1 0 1 2 2 3 3
CIN
-0 -0 -0 -0 -0 -0 -0 -0 -0 -0 -0 -0 -0 -0 -0 -0 -0 -0 -0 -0 -0 -0 -0 -0 -0 -0 -0 -0 -0 -0 -0 -0 -0 -0 -0 -0 -0 -0 -0 -0 -0 -0 -0
-0 -0 -0 -0 -0 -0 -0 -0 -0 -0 -0 -0 -0 -0 -0 -0 -0 -0 -0 -0 -0 -0 -0 -0 -0 -0 -0 -0 -0 -0 -0 -0 -0 -0 -0 -0 -0 -0 -0 -0 -0 -0 -0
-0 -0 -0 -0 -0 -0 -0 -0 -0 -0 -0 -0 -0 -0 -0 -0 -0 -0 -0 -0 -0 -0 -0 -0 -0 -0 -0 -0 -0 -0 -0 -0 -0 -0 -0 -0 -0 -0 -0 -0 -0 -1 -2
-0 -0 -0 -0 -0 -0 -0 -0 -0 -0 -0 -0 -0 -0 -0 -0 -0 -0 -0 -0 -0 -0 -0 -0 -0 -0 -0 -0 -0 -0 -0 -3 -3 -1 -1 -3 -2 -1 -1 -2 -3 -1 -3
-0 -0 -0 -0 -0 -0 -0 -0 -0 -0 -0 -0 -0 -0 -0 -0 -0 -0 -0 -0 -0 -0 -0 -0 -0 -0 -0 -0 -1 -1 -2 -3 -17 -7 -2 -8 -1 -3 -3 -1 -1 -1 -1
-0 -0 -0 -0 -0 -0 -0 -0 -0 -0 -0 -0 -0 -0 -0 -0 -0 -0 -0 -0 -0 -1 -1 -1 -1 -0 -1 -1 -1 -1 -1 -11 -5 -2 -0 -0 -1 -3 -0 -2 -1 -1 -2
-0 -0 -0 -0 -0 -0 -0 -0 -0 -0 -0 -0 -0 -0 -0 -0 -0 -0 -0 -0 -1 -1 -1 -1 -1 -0 -0 -0 -1 -1 -1 -1 -1 -1 -2 -1 -2 -4 -2 -1 -5 -2 -1
-0 -0 -0 -0 -0 -0 -0 -0 -0 -0 -0 -0 -0 -0 -0 -0 -0 -0 -0 -0 -0 -0 -0 -0 -0 -0 -0 -0 -1 -1 -1 -1 -1 -2 -2 -1 -0 -1 -1 -1 -1 -0 -0
-0 -0 -0 -0 -0 -0 -0 -0 -0 -0 -0 -0 -0 -0 -0 -0 -0 -0 -0 -0 -0 -0 -0 -0 -0 -0 -1 -0 -2 -1 -1 -0 -0 -1 -0 -1 -0 -0 -1 -2 -1 -0 -0
-0 -0 -0 -0 -0 -0 -0 -0 -0 -0 -0 -0 -0 -0 -0 -0 -0 -0 -0 -0 -0 -0 -1 -1 -1 -1 -0 -1 -1 -1 -1 -1 -1 -1 -1 -3 -0 -3 -0 -0 -0 -1 -6
-0 -0 -0 -0 -0 -0 -0 -0 -0 -0 -0 -0 -0 -0 -0 -0 -0 -0 -0 -1 -0 -1 -1 -1 -1 -0 -0 -1 -1 -1 -0 -0 -1 -0 -0 -0 -0 -0 -1 -0 -0 -0 -0
-0 -0 -0 -0 -0 -0 -0 -0 -0 -0 -0 -0 -0 -0 -0 -0 -0 -0 -1 -1 -1 -1 -1 -1 -0 -1 -1 -1 -0 -1 -1 -3 -0 -0 -0 -1 -3 -2 -1 -1 -2 -0 -0
-0 -0 -0 -0 -0 -0 -0 -0 -0 -0 -0 -0 -0 -0 -0 -0 -0 -0 -1 -0 -1 -1 -1 -1 -0 -0 -1 -0 -0 -0 -1 -1 -2 -2 -2 -2 -3 -2 -2 -3 -0 -0 -0
-0 -0 -0 -0 -0 -0 -0 -0 -0 -0 -0 -0 -0 -0 -0 -0 -0 -1 -1 -0 -1 -1 -1 -1 -0 -1 -0 -1 -0 -1 -1 -1 -2 -2 -1 -1 -0 -0 -0 -0 -0 -0 -0
-0 -0 -0 -0 -0 -0 -0 -0 -0 -0 -0 -0 -0 -0 -1 -1 -1 -0 -0 -0 -0 -0 -0 -0 -2 -1 -1 -1 -1 -1 -1 -0 -0 -0 -1 -1 -1 -0 -0 -0 -0 -1 -0
-0 -0 -0 -0 -0 -0 -0 -0 -0 -0 -0 -0 -0 -0 -1 -0 -0 -1 -0 -0 -1 -0 -0 -2 -1 -1 -0 -0 -0 -0 -1 -0 -0 -0 -1 -0 -0 -1 -1 -1 -1 -1 -0
-0 -0 -0 -0 -0 -0 -0 -0 -0 -0 -0 -0 -0 -0 -0 -0 -0 -0 -1 -0 -0 -0 -1 -0 -0 -0 -0 -0 -0 -0 -0 -0 -0 -0 -1 -0 -1 -1 -1 -1 -0 -0 -0
-0 -0 -0 -0 -0 -0 -0 -0 -0 -0 -0 -0 -0 -0 -0 -0 -0 -0 -0 -0 -1 -1 -0 -0 -0 -0 -0 -1 -0 -0 -0 -0 -0 -0 -0 -0 -0 -0 -0 -0 -1 -0 -0
-0 -0 -0 -0 -0 -0 -0 -0 -0 -0 -0 -0 -0 -0 -0 -0 -1 -1 -0 -0 -0 -0 -0 -0 -0 -0 -0 -0 -0 -0 -0 -1 -0 -0 -0 -0 -0 -0 -0 -0 -0 -0 -0
-0 -0 -0 -0 -0 -0 -0 -0 -0 -0 -0 -0 -1 -1 -0 -0 -0 -1 -0 -0 -0 -0 -0 -0 -0 -0 -0 -0 -0 -0 -1 -0 -0 -0 -0 -0 -0 -0 -0 -0 -0 -0 -0
-0 -0 -0 -0 -0 -0 -0 -0 -0 -0 -0 -1 -1 -1 -0 -1 -0 -0 -0 -0 -0 -0 -0 -0 -0 -0 -0 -0 -0 -0 -0 -0 -0 -0 -0 -0 -0 -0 -1 -0 -0 -0 -0
-0 -0 -0 -0 -0 -0 -0 -0 -0 -0 -0 -1 -2 -1 -0 -0 -0 -0 -0 -0 -0 -0 -0 -0 -0 -0 -0 -0 -0 -0 -0 -0 -0 -0 -0 -0 -0 -0 -0 -0 -0 -0 -0
-0 -0 -0 -0 -0 -0 -0 -0 -0 -0 -0 -0 -0 -1 -0 -1 -0 -0 -0 -0 -0 -0 -0 -0 -0 -0 -0 -0 -0 -0 -0 -0 -0 -0 -0 -0 -0 -0 -0 -0 -0 -0 -0
-0 -0 -0 -0 -0 -0 -0 -0 -0 -0 -0 -0 -0 -0 -0 -0 -0 -0 -0 -0 -0 -0 -0 -0 -0 -0 -0 -0 -0 -0 -0 -0 -0 -0 -0 -0 -0 -0 -0 -0 -0 -0 -0
-0 -0 -0 -0 -0 -0 -0 -0 -0 -0 -1 -1 -1 -0 -0 -0 -0 -0 -0 -0 -0 -0 -0 -0 -0 -0 -0 -0 -0 -0 -0 -0 -0 -0 -0 -0 -0 -0 -0 -0 -0 -0 -0
-0 -0 -0 -0 -0 -0 -0 -0 -0 -0 -0 -0 -0 -0 -0 -0 -0 -0 -0 -0 -0 -0 -0 -0 -0 -0 -0 -0 -0 -0 -0 -0 -0 -0 -0 -0 -0 -0 -0 -0 -0 -0 -0
Wind_Speed
7 9 11 11 13 12 11 12 11 11 10 8 5 1 10 10 10 12 12 14 17 19 21 22 23 24 26 27 28 30 31 32 38 38 37 36 35 35 33 34 36 34 31
9 10 11 12 14 13 13 15 13 13 11 9 7 7 9 9 10 11 13 16 18 20 21 23 25 26 27 28 29 31 32 33 36 39 38 36 35 35 39 38 36 34 32
12 12 14 16 16 17 17 15 14 14 13 12 11 10 11 11 13 15 17 18 19 21 22 24 26 28 30 30 31 32 34 34 34 37 37 34 37 38 39 38 37 34 31
14 16 16 16 16 16 16 16 15 15 14 14 14 14 15 16 17 18 19 20 21 22 25 27 28 29 30 32 34 34 34 34 33 33 34 37 40 38 37 39 37 32 31
15 16 15 15 16 16 16 16 16 16 16 16 16 17 18 18 19 21 21 23 25 26 26 27 28 29 31 33 35 34 34 33 32 31 33 38 39 38 37 35 35 33 28
16 16 16 16 16 17 17 17 17 18 19 19 19 20 21 21 23 24 25 25 26 27 28 27 27 28 29 32 33 34 31 29 31 30 33 37 39 37 35 34 31 29 28
16 16 16 16 17 18 18 19 20 20 20 21 22 22 23 23 25 25 25 24 24 24 24 25 26 27 29 30 31 30 30 33 37 41 44 44 42 37 34 31 28 25 24
16 16 17 18 19 19 20 20 20 21 22 23 23 23 24 23 24 24 25 24 23 22 22 23 26 29 28 30 32 32 30 30 33 34 35 36 35 34 32 31 29 29 26
17 18 19 20 20 20 21 21 21 22 23 23 24 24 24 24 25 25 25 23 22 21 21 20 21 26 27 27 28 29 31 32 31 30 28 30 32 32 31 30 29 27 25
17 18 19 20 19 20 20 20 21 21 23 23 24 23 24 24 23 23 23 21 21 20 20 20 19 21 25 27 28 29 31 32 31 30 28 30 31 30 31 30 28 23 22
17 18 19 19 19 19 20 21 22 23 23 24 24 24 23 22 22 22 21 20 20 19 20 20 20 21 22 24 25 25 27 33 33 31 26 23 26 26 26 25 25 25 27
16 17 18 18 19 20 21 21 22 23 23 23 23 24 22 22 22 21 19 19 19 20 20 20 20 19 19 20 24 26 30 33 26 29 29 30 30 30 29 28 28 30 29
16 17 17 18 19 20 21 22 22 22 22 23 24 25 24 23 21 20 18 20 20 19 19 18 19 24 27 26 24 25 30 28 27 29 29 30 29 28 28 27 26 26 27
15 15 16 17 18 19 20 21 21 22 22 24 24 25 24 22 21 21 21 21 20 20 20 23 22 21 21 24 25 26 26 26 26 27 28 29 28 27 26 25 25 25 25
14 15 16 17 18 19 20 20 21 21 21 22 22 22 23 22 20 20 22 22 22 23 25 22 24 25 26 26 26 26 25 25 26 26 27 27 26 26 26 25 24 24 25
13 15 16 17 18 19 20 20 19 20 20 21 20 21 20 18 20 23 23 25 25 25 23 23 25 26 27 28 28 28 27 26 25 26 25 25 26 26 26 25 24 23 23
13 14 15 16 17 18 19 20 22 21 20 21 22 21 19 19 21 25 25 25 23 24 24 25 25 25 26 26 25 22 17 14 13 14 15 15 17 20 22 22 21 21 23
12 14 15 16 17 17 18 19 19 22 25 24 22 21 20 20 22 24 25 24 25 24 24 23 23 24 22 18 15 16 18 18 16 14 14 13 15 18 17 15 15 18 23
12 13 14 15 16 17 18 19 19 20 23 24 24 21 20 21 22 24 25 24 23 23 21 20 20 17 13 14 17 20 19 17 14 11 9 10 4 7 13 14 11 17 31
12 13 14 15 16 17 18 19 19 21 23 23 23 22 20 20 21 23 23 23 21 19 17 17 13 12 13 15 17 19 18 19 19 15 10 5 3 2 4 7 11 23 26
11 12 13 14 16 17 18 19 18 20 22 23 23 20 20 19 19 22 22 21 19 17 15 14 10 8 9 9 9 12 14 17 19 16 13 7 5 5 6 9 14 19 23
10 11 13 14 15 17 18 18 18 19 20 22 23 21 20 19 19 21 21 20 17 14 11 11 7 7 9 12 12 12 14 15 14 16 14 13 11 8 6 9 13 18 21
9 11 13 14 16 17 18 18 18 19 20 21 22 22 20 19 19 20 21 18 16 12 9 7 7 9 9 12 15 13 14 14 12 11 8 8 7 6 6 7 10 13 20
9 11 12 14 16 17 18 18 18 19 20 20 22 22 20 18 18 19 21 20 19 12 1 4 7 6 9 13 14 14 16 16 15 11 7 4 1 1 2 4 6 12 22
9 11 12 14 16 17 18 18 18 18 19 20 22 22 21 18 18 18 23 23 26 30 22 16 6 6 10 8 11 11 11 11 12 9 8 4 5 5 5 6 9 9 8
8 10 12 14 15 16 17 18 19 18 19 19 20 22 21 19 18 18 23 25 28 31 31 27 14 6 8 9 10 10 12 10 11 11 9 7 6 6 6 7 9 8 9
Wind_Direction
15 17 23 11 12 8 357 24 50 65 79 101 118 343 309 311 305 305 307 306 305 306 308 308 307 309 308 308 308 307 306 307 305 306 307 308 309 310 310 306 301 305 309
9 10 13 19 28 21 19 51 41 39 37 39 25 357 333 329 328 320 316 314 311 309 308 308 308 308 307 308 307 306 306 306 305 305 306 308 307 304 295 299 302 305 307
32 34 33 39 37 46 44 32 27 26 26 22 13 2 352 344 335 328 322 318 314 312 310 309 308 307 307 307 306 306 305 304 304 303 305 306 298 294 295 297 301 306 308
40 44 41 39 37 30 24 21 18 14 12 8 3 355 347 339 334 328 324 320 315 313 311 309 308 307 306 306 305 304 303 303 303 304 301 296 290 294 296 297 301 307 309
38 37 30 25 25 22 18 15 13 10 6 1 357 351 346 341 337 331 327 322 318 315 314 313 311 309 308 306 304 303 303 302 301 301 299 295 290 294 298 303 303 307 310
37 30 27 23 22 17 12 7 2 355 353 355 352 347 342 340 337 335 330 326 323 320 319 317 316 314 310 306 303 301 303 303 299 300 297 294 293 298 301 303 304 308 310
29 26 23 16 9 7 0 353 352 355 355 353 352 350 347 345 343 341 338 334 331 328 326 323 320 317 314 311 307 306 304 300 294 290 287 288 293 298 301 302 305 307 308
20 16 12 6 1 358 354 355 359 360 357 356 355 354 351 351 349 347 344 340 336 332 330 328 323 318 317 312 308 306 307 306 303 301 297 297 297 298 299 301 303 305 306
14 5 1 354 354 350 350 356 359 359 358 357 357 356 355 353 353 350 347 343 339 336 335 333 329 323 320 318 314 311 308 307 306 304 303 302 300 298 298 300 300 303 303
12 5 358 353 354 353 359 4 4 3 360 1 359 1 358 355 354 353 351 348 344 343 343 340 336 331 326 320 317 314 311 310 309 308 307 306 305 305 302 299 299 298 302
15 7 360 359 1 6 6 4 5 3 3 2 3 2 1 0 358 357 355 353 349 346 344 342 339 335 331 326 322 319 315 310 308 308 308 310 310 308 306 304 302 300 298
17 11 8 7 6 4 5 8 7 8 6 7 5 3 5 4 2 0 359 357 354 350 347 346 343 340 337 332 327 323 318 314 318 312 309 307 306 305 305 303 302 300 300
14 12 11 11 9 9 10 9 12 12 12 10 7 6 6 6 7 7 7 1 358 356 353 351 347 341 334 332 334 329 323 320 316 313 311 309 309 309 309 307 306 305 303
15 15 16 15 13 14 15 15 16 14 15 11 9 8 8 11 12 11 6 3 2 0 357 353 354 352 347 341 337 334 331 326 322 317 315 314 313 312 310 309 308 307 306
16 14 15 13 13 15 17 18 18 20 19 14 15 14 11 12 15 11 8 8 5 4 359 358 356 353 350 347 344 340 336 332 328 324 320 318 316 314 311 310 309 308 305
17 10 9 13 14 17 18 19 25 23 23 21 20 19 19 20 16 10 9 6 5 5 7 7 4 360 356 352 347 344 341 337 333 329 325 322 319 317 314 312 310 307 306
18 11 10 13 16 20 20 19 13 22 25 25 23 24 26 22 18 10 10 11 14 16 14 12 10 9 7 5 4 4 4 2 354 346 341 337 333 328 321 318 317 311 305
19 12 14 17 21 22 23 22 22 18 14 17 24 26 27 24 20 17 14 16 15 18 20 22 22 20 23 27 27 20 12 7 2 355 347 343 337 331 329 330 330 320 306
21 13 18 22 25 24 23 23 24 23 17 18 21 25 27 24 22 18 17 18 20 23 29 34 35 39 42 38 32 25 25 21 18 13 4 359 355 352 338 334 338 271 258
18 17 23 26 26 22 24 24 24 21 18 20 21 22 26 26 25 18 17 19 23 31 40 42 46 43 38 33 29 28 32 33 33 35 40 48 59 84 170 187 201 234 241
20 19 25 27 26 22 24 23 26 22 20 20 22 26 25 27 25 18 17 19 27 37 44 43 47 46 42 37 34 35 37 36 37 43 51 70 99 127 154 185 208 222 231
22 21 25 29 25 23 24 25 28 25 22 21 22 25 28 29 26 19 17 22 30 42 48 47 52 51 42 39 37 35 34 34 36 40 46 53 62 84 148 185 204 222 225
25 23 26 30 25 23 24 26 29 27 23 23 23 23 26 27 25 20 17 21 29 40 51 56 49 43 42 37 34 36 32 29 27 32 36 43 56 74 114 153 181 193 228
27 24 26 29 24 23 24 27 29 28 25 24 24 23 26 27 25 22 15 15 15 33 121 57 43 34 28 26 26 27 27 23 22 22 17 13 303 202 120 149 171 202 236
26 25 27 29 23 24 25 27 28 28 25 25 24 23 26 27 25 22 9 7 350 320 275 263 24 14 14 1 8 9 360 350 2 347 360 323 276 255 237 223 219 218 220
26 28 28 28 25 26 27 27 26 27 26 26 25 24 26 26 24 22 7 1 348 312 300 285 267 297 340 348 356 332 310 329 337 330 309 297 279 257 244 235 234 237 241